Hourly Weather Klejniki

Today, 29 July, Thursday

Time Temperature Precipitation Wind Pressure Humidity
00:00 +21°C° 0.3 mm 2 mps 744 mmHg 79%
01:00 +20°C° 0.3 mm 2 mps 744 mmHg 87%
02:00 +19°C° 0 mm 2 mps 744 mmHg 95%
03:00 +19°C° 0.5 mm 2 mps 744 mmHg 95%
04:00 +20°C° 0.5 mm 1 mps 744 mmHg 95%
05:00 +20°C° 0.5 mm 1 mps 744 mmHg 95%
06:00 +20°C° 0.7 mm 1 mps 744 mmHg 94%
07:00 +21°C° 0.7 mm 1 mps 744 mmHg 94%
08:00 +20°C° 0 mm 2 mps 744 mmHg 93%
09:00 +22°C° 0.3 mm 3 mps 744 mmHg 85%
10:00 +23°C° 0.3 mm 4 mps 744 mmHg 77%
11:00 +26°C° 0.3 mm 4 mps 744 mmHg 69%
12:00 +27°C° 0.1 mm 5 mps 744 mmHg 61%
13:00 +28°C° 0.1 mm 5 mps 744 mmHg 53%
14:00 +29°C° 0.1 mm 5 mps 744 mmHg 45%
15:00 +28°C° 0 mm 5 mps 744 mmHg 46%
16:00 +28°C° 0 mm 5 mps 744 mmHg 48%
17:00 +28°C° 0 mm 4 mps 744 mmHg 49%
18:00 +26°C° 0 mm 4 mps 744 mmHg 53%
19:00 +25°C° 0 mm 3 mps 744 mmHg 57%
20:00 +22°C° 0 mm 3 mps 744 mmHg 62%
21:00 +22°C° 0 mm 3 mps 744 mmHg 64%
22:00 +21°C° 0 mm 2 mps 744 mmHg 67%
23:00 +20°C° 0 mm 2 mps 744 mmHg 70%

Tomorrow, 30 July, Friday

Time Temperature Precipitation Wind Pressure Humidity
00:00 +20°C° 0 mm 3 mps 744 mmHg 69%
01:00 +19°C° 0 mm 3 mps 744 mmHg 69%
02:00 +19°C° 0 mm 3 mps 744 mmHg 68%
03:00 +19°C° 0 mm 3 mps 744 mmHg 70%
04:00 +18°C° 0 mm 3 mps 744 mmHg 71%
05:00 +17°C° 0 mm 3 mps 744 mmHg 73%
06:00 +18°C° 0 mm 3 mps 744 mmHg 70%
07:00 +19°C° 0 mm 3 mps 744 mmHg 66%
08:00 +21°C° 0 mm 3 mps 745 mmHg 63%
09:00 +22°C° 0 mm 4 mps 744 mmHg 57%
10:00 +23°C° 0 mm 5 mps 744 mmHg 51%
11:00 +24°C° 0 mm 6 mps 744 mmHg 45%
12:00 +26°C° 0 mm 6 mps 744 mmHg 44%
13:00 +26°C° 0 mm 6 mps 744 mmHg 44%
14:00 +27°C° 0 mm 6 mps 743 mmHg 43%
15:00 +26°C° 0 mm 5 mps 743 mmHg 45%
16:00 +26°C° 0 mm 5 mps 743 mmHg 47%
17:00 +26°C° 0 mm 5 mps 743 mmHg 49%
18:00 +25°C° 0 mm 4 mps 742 mmHg 54%
19:00 +22°C° 0 mm 3 mps 742 mmHg 59%
20:00 +21°C° 0 mm 2 mps 742 mmHg 64%
21:00 +20°C° 0 mm 2 mps 742 mmHg 65%
22:00 +19°C° 0 mm 3 mps 742 mmHg 66%
23:00 +19°C° 0 mm 3 mps 742 mmHg 67%

Day after tomorrow, 31 July, Saturday

Time Temperature Precipitation Wind Pressure Humidity
00:00 +18°C° 0 mm 3 mps 742 mmHg 69%
01:00 +18°C° 0 mm 3 mps 743 mmHg 71%
02:00 +17°C° 0 mm 3 mps 743 mmHg 73%
03:00 +17°C° 0 mm 3 mps 743 mmHg 75%
04:00 +16°C° 0 mm 2 mps 743 mmHg 76%
05:00 +16°C° 0 mm 2 mps 743 mmHg 78%
06:00 +18°C° 0 mm 2 mps 743 mmHg 72%
07:00 +19°C° 0 mm 2 mps 743 mmHg 67%
08:00 +21°C° 0 mm 2 mps 743 mmHg 61%
09:00 +24°C° 0 mm 2 mps 743 mmHg 55%
10:00 +26°C° 0 mm 3 mps 743 mmHg 50%
11:00 +27°C° 0 mm 3 mps 743 mmHg 44%
12:00 +28°C° 0 mm 3 mps 742 mmHg 42%
13:00 +29°C° 0 mm 3 mps 742 mmHg 40%
14:00 +30°C° 0 mm 3 mps 742 mmHg 38%
15:00 +29°C° 0 mm 3 mps 742 mmHg 42%
16:00 +29°C° 0 mm 3 mps 741 mmHg 45%
17:00 +28°C° 0 mm 3 mps 741 mmHg 49%
18:00 +25°C° 1.1 mm 2 mps 741 mmHg 64%
19:00 +23°C° 1.1 mm 2 mps 741 mmHg 80%
20:00 +19°C° 1.1 mm 2 mps 741 mmHg 95%
21:00 +19°C° 0.1 mm 2 mps 742 mmHg 95%
22:00 +18°C° 0.1 mm 2 mps 742 mmHg 94%
23:00 +18°C° 0.1 mm 2 mps 742 mmHg 93%

1 August, Sunday

Time Temperature Precipitation Wind Pressure Humidity
00:00 +18°C° 0 mm 3 mps 742 mmHg 94%
01:00 +17°C° 0 mm 3 mps 742 mmHg 95%
02:00 +17°C° 0 mm 4 mps 742 mmHg 96%
03:00 +17°C° 0 mm 3 mps 742 mmHg 96%
04:00 +16°C° 0 mm 3 mps 742 mmHg 96%
05:00 +16°C° 0 mm 3 mps 742 mmHg 95%
06:00 +17°C° 0 mm 3 mps 743 mmHg 87%
07:00 +18°C° 0 mm 3 mps 743 mmHg 79%
08:00 +19°C° 0 mm 3 mps 743 mmHg 71%
09:00 +21°C° 0 mm 4 mps 743 mmHg 64%
10:00 +22°C° 0 mm 4 mps 743 mmHg 56%
11:00 +25°C° 0 mm 4 mps 743 mmHg 49%
12:00 +25°C° 0 mm 4 mps 743 mmHg 47%
13:00 +26°C° 0 mm 4 mps 743 mmHg 44%
14:00 +27°C° 0 mm 4 mps 743 mmHg 42%
15:00 +25°C° 0.1 mm 4 mps 743 mmHg 53%
16:00 +22°C° 0.1 mm 3 mps 743 mmHg 63%
17:00 +20°C° 0.1 mm 3 mps 743 mmHg 74%
18:00 +20°C° 0.1 mm 2 mps 743 mmHg 76%
19:00 +20°C° 0.1 mm 2 mps 743 mmHg 77%
20:00 +20°C° 0.1 mm 1 mps 742 mmHg 79%
21:00 +20°C° 1.6 mm 1 mps 742 mmHg 83%
22:00 +19°C° 1.6 mm 1 mps 742 mmHg 88%
23:00 +18°C° 1.6 mm 1 mps 742 mmHg 93%

2 August, Monday

Time Temperature Precipitation Wind Pressure Humidity
00:00 +18°C° 2 mm 1 mps 742 mmHg 94%
01:00 +18°C° 2 mm 1 mps 741 mmHg 95%
02:00 +18°C° 2 mm 1 mps 741 mmHg 96%
03:00 +17°C° 1.5 mm 2 mps 741 mmHg 97%
04:00 +17°C° 1.5 mm 3 mps 740 mmHg 97%
05:00 +16°C° 1.5 mm 3 mps 740 mmHg 97%
06:00 +16°C° 1.5 mm 3 mps 740 mmHg 97%
07:00 +15°C° 1.5 mm 4 mps 740 mmHg 97%
08:00 +15°C° 1.5 mm 4 mps 741 mmHg 97%
09:00 +15°C° 0.8 mm 4 mps 741 mmHg 96%
10:00 +14°C° 0.8 mm 4 mps 741 mmHg 95%
11:00 +14°C° 0.8 mm 4 mps 742 mmHg 95%
12:00 +14°C° 0.2 mm 4 mps 742 mmHg 94%
13:00 +14°C° 0.2 mm 4 mps 743 mmHg 93%
14:00 +14°C° 0.2 mm 4 mps 743 mmHg 92%
15:00 +15°C° 0.2 mm 4 mps 743 mmHg 87%
16:00 +17°C° 0.2 mm 4 mps 743 mmHg 83%
17:00 +18°C° 0.2 mm 3 mps 743 mmHg 78%
18:00 +17°C° 0.1 mm 4 mps 744 mmHg 80%
19:00 +17°C° 0.1 mm 4 mps 744 mmHg 82%
20:00 +15°C° 0.1 mm 4 mps 744 mmHg 85%
21:00 +14°C° 0 mm 4 mps 744 mmHg 88%
22:00 +14°C° 0 mm 3 mps 745 mmHg 91%
23:00 +13°C° 0 mm 3 mps 745 mmHg 94%

3 August, Tuesday

Time Temperature Precipitation Wind Pressure Humidity
00:00 +13°C° 0 mm 3 mps 745 mmHg 94%
01:00 +14°C° 0 mm 3 mps 745 mmHg 94%
02:00 +14°C° 0 mm 3 mps 745 mmHg 94%
03:00 +15°C° 0 mm 2 mps 745 mmHg 94%
04:00 +14°C° 0 mm 2 mps 745 mmHg 95%
05:00 +14°C° 0 mm 2 mps 745 mmHg 95%
06:00 +14°C° 0 mm 3 mps 746 mmHg 91%
07:00 +16°C° 0 mm 3 mps 746 mmHg 87%
08:00 +17°C° 0 mm 3 mps 746 mmHg 83%
09:00 +18°C° 0.3 mm 3 mps 746 mmHg 78%
10:00 +19°C° 0.3 mm 3 mps 746 mmHg 73%
11:00 +20°C° 0.3 mm 3 mps 747 mmHg 69%
12:00 +21°C° 0.4 mm 3 mps 746 mmHg 66%
13:00 +21°C° 0.4 mm 4 mps 746 mmHg 63%
14:00 +22°C° 0.4 mm 4 mps 746 mmHg 60%
15:00 +22°C° 0.4 mm 3 mps 746 mmHg 59%
16:00 +22°C° 0.4 mm 3 mps 746 mmHg 58%
17:00 +23°C° 0.4 mm 2 mps 746 mmHg 57%
18:00 +21°C° 0.1 mm 2 mps 746 mmHg 62%
19:00 +19°C° 0.1 mm 2 mps 746 mmHg 66%
20:00 +19°C° 0.1 mm 1 mps 747 mmHg 70%
21:00 +18°C° 0 mm 1 mps 747 mmHg 69%
22:00 +18°C° 0 mm 1 mps 747 mmHg 68%
23:00 +18°C° 0 mm 1 mps 747 mmHg 66%
Show more